Terminal Aerodrome Forecast
Issued by NWS Topeka, KS

Home | Current Version | Previous Version | Graphics & Text | Print | Product List | Glossary On
Versions: 1 2 3 4 5 6 7 8 9 10 11 12 13 14 15 16 17 18 19
271
FTUS43 KTOP 171137
TAFTOP
TAF
KTOP 171137Z 1712/1812 28005KT P6SM OVC010
     FM171400 29007KT P6SM OVC020
     FM171600 30006KT P6SM SCT035=

USA.gov is the U.S. government's official web portal to all federal, state and local government web resources and services.